Regional Weather Roundup
Issued by NWS

Home | Current Version | Previous Version | Graphics & Text | Print | Product List | Glossary On
Versions: 1 2 3 4 5 6 7 8 9 10 11 12 13 14 15 16 17 18 19 20 21 22 23 24 25 26 27 28 29 30 31 32 33 34 35 36 37 38 39 40 41 42 43 44 45 46 47 48 49 50
175
ASUS43 KOAX 240602
RWRNE

WEATHER ROUNDUP FOR NEBRASKA
NATIONAL WEATHER SERVICE OMAHA NE
100 AM CDT WED MAY 24 2017

NOTES: SATELLITE DATA IS BEING USED TO AUGMENT CLOUD COVER ABOVE
       12000 FEET.
       "FAIR" INDICATES FEW OR NO CLOUDS BELOW 12,000 FEET WITH NO
       SIGNIFICANT WEATHER AND/OR OBSTRUCTIONS TO VISIBILITY.

  * THESE STATIONS DO NOT REPORT WEATHER SUCH AS RAIN...SNOW OR FOG.

NEZ001>004-019>022-054>056-240700-
NEBRASKA PANHANDLE

CITY           SKY/WX    TMP DP  RH WIND       PRES   REMARKS
SCOTTSBLUFF    CLOUDY    44  37  76 SE3       30.00F
6HR MIN TEMP:  43; 6HR MAX TEMP:  64;

ALLIANCE       CLOUDY    34  31  88 SE3       30.00F
6HR MIN TEMP:  33; 6HR MAX TEMP:  59;

CHADRON        CLOUDY    43  36  76 S3        29.98F
6HR MIN TEMP:  39; 6HR MAX TEMP:  61;

GORDON         FAIR      37  34  90 SW3       29.99F
6HR MIN TEMP:  36; 6HR MAX TEMP:  58;

KIMBALL        CLEAR     40  36  85 SW7       30.04F
SIDNEY         CLOUDY    35  32  88 CALM      30.02F
6HR MIN TEMP:  33; 6HR MAX TEMP:  59;

$$

NEZ057>060-069>072-079>082-240700-
SOUTHWEST NEBRASKA

CITY           SKY/WX    TMP DP  RH WIND       PRES   REMARKS
NORTH PLATTE   CLEAR     39  37  92 NW8       29.99F WCI  33
6HR MIN TEMP:  38; 6HR MAX TEMP:  59;

IMPERIAL       CLEAR     42  35  76 N7        30.01S
6HR MIN TEMP:  42; 6HR MAX TEMP:  59;

LEXINGTON      MOCLDY    41  38  87 NW5       29.96F
MCCOOK         CLEAR     43  37  79 N9        29.98F
6HR MIN TEMP:  43; 6HR MAX TEMP:  61;

OGALLALA       CLEAR     42  36  79 NE5       30.00F
$$

NEZ005>010-023>029-035>040-094-240700-
NORTH CENTRAL NEBRASKA

CITY           SKY/WX    TMP DP  RH WIND       PRES   REMARKS
VALENTINE      CLEAR     40  34  79 NW7       29.96F
6HR MIN TEMP:  39; 6HR MAX TEMP:  57;

AINSWORTH      CLEAR     45  40  84 CALM      29.95F
BROKEN BOW     CLOUDY    49  41  74 NW8       29.94F
6HR MIN TEMP:  48; 6HR MAX TEMP:  57;

O`NEILL        PTCLDY    45  41  87 NW6       29.93F
ORD            CLOUDY    49  41  74 NW9       29.92F
6HR MIN TEMP:  49; 6HR MAX TEMP:  53;

THEDFORD       CLEAR     38  36  91 W6        29.97F WCI  34
$$

NEZ041-046>049-061>064-073>077-083>087-240700-
SOUTH CENTRAL NEBRASKA

CITY           SKY/WX    TMP DP  RH WIND       PRES   REMARKS
GRAND ISLAND   CLOUDY    50  44  80 N15       29.91F
6HR MIN TEMP:  50; 6HR MAX TEMP:  54;

AURORA         PTCLDY    49  44  83 N14       29.90S
HASTINGS       CLOUDY    50  42  74 N14       29.92F
6HR MIN TEMP:  50; 6HR MAX TEMP:  54;

HEBRON         PTCLDY    49  45  83 NW7       29.88F
HOLDREGE       MOCLDY    45  40  82 NW7       29.94F
KEARNEY *      MOCLDY    48  39  71 N8        29.94S
$$

NEZ011>018-030>034-042>045-240700-
NORTHEAST NEBRASKA

CITY           SKY/WX    TMP DP  RH WIND       PRES   REMARKS
NORFOLK        MOCLDY    48  43  82 N14       29.87F
6HR MIN TEMP:  48; 6HR MAX TEMP:  53; 6HR PCP: TRACE;

ALBION         CLOUDY    51  43  75 N9        29.90F
BLAIR          MOCLDY    50  47  88 N13       29.81F
FREMONT        PTCLDY    50  46  85 NW8G21    29.84F
TEKAMAH        CLOUDY    51  47  86 NW12      29.82F
6HR MIN TEMP:  50; 6HR MAX TEMP:  55; 6HR PCP:  0.08;

WAYNE          PTCLDY    48  48  99 NW10      29.86S
$$

NEZ050>053-065>068-078-088>093-240700-
SOUTHEAST NEBRASKA

CITY           SKY/WX    TMP DP  RH WIND       PRES   REMARKS
LINCOLN        MOCLDY    52  46  80 NW14      29.85F
6HR MIN TEMP:  52; 6HR MAX TEMP:  58; 6HR PCP: TRACE;

OMAHA EPPLEY   MOCLDY    51  46  83 NW13      29.81F
6HR MIN TEMP:  49; 6HR MAX TEMP:  55; 6HR PCP: TRACE;

BEATRICE       CLOUDY    52  46  80 N14G23    29.84F
FALLS CITY     CLOUDY    51  47  86 NW8       29.79F
6HR MIN TEMP:  50; 6HR MAX TEMP:  60; 6HR PCP: TRACE;

NEBRASKA CITY  CLEAR     51  46  84 NW12      29.80F
PLATTSMOUTH    PTCLDY    49  45  85 NW8       29.80F
$$

NEZ044-045-051>053-067-240700-
OMAHA AREA

CITY           SKY/WX    TMP DP  RH WIND       PRES   REMARKS
OMAHA EPPLEY   MOCLDY    51  46  83 NW13      29.81F
6HR MIN TEMP:  49; 6HR MAX TEMP:  55; 6HR PCP: TRACE;

BLAIR          MOCLDY    50  47  88 N13       29.81F
FREMONT        PTCLDY    50  46  85 NW8G21    29.84F
MILLARD        PTCLDY    53  48  83 NW8       29.82F
OFFUTT AFB     MOCLDY    50  47  89 NW9       29.80F
PLATTSMOUTH    PTCLDY    49  45  85 NW8       29.80F
WAHOO          FAIR      50  46  87 NW12      29.83F
$$




USA.gov is the U.S. government's official web portal to all federal, state and local government web resources and services.